Погода в Хауккавааре

Россия / Республика Карелия     61°15′08″N   29°41′14″E
темп.,
°C
ветер,
м/с
пор.,
м/с
влажн.,
%
обл.,
%
осадки,
мм/ч
давл.,
гПа
погр.,
м
14 августа, вс
вс1400:00+14ююв00645 0.0 102213
03:00+13ююв0061100 0.0 102318
06:00+13ю00655 0.0 102219
09:00+19ююз11465 0.0 1022272
12:00+24ююв11362 0.0 1022870
15:00+24вюв32380 0.0 1021887
18:00+21вюв34465 0.0 1020229
21:00+17вюв22635 0.0 102018
15 августа, пн
пн1500:00+15юв11575 0.0 102111
03:00+14в11565 0.0 102112
06:00+14всв11655 0.0 102120
09:00+20в24535 0.0 1021309
12:00+23вюв345385 0.0 1021577
15:00+23в355661 0.0 1020663
18:00+23в356353 0.0 1019265
21:00+18в238692 0.0 101963
16 августа, вт
вт1600:00+18в238592 0.0 101950
03:00+17в118764 0.0 101912
06:00+17вюв118655 0.0 101912
09:00+23юв235921 0.0 1019281
12:00+27вюв354559 0.0 10191067
15:00+26в354675 0.0 10181279
18:00+24вюв3759100 0.0 1018281
21:00+20вюв25745 0.0 101893
17 августа, ср
ср1700:00+21вюв226776 0.0 101733
03:00+18в118046 0.0 101713
06:00+18ююв117994 0.0 101618
09:00+23юв2466100 0.1 1017295
12:00+27ю364945 0.2 10161330
15:00+22ю376988 0.3 1017324
18:00+25ююз475784 0.3 1017666
21:00+20ююв267892 0.3 1017163
18 августа, чт
чт1800:00+20ююв297693 0.1 1017233
03:00+18ю289371 1.4 1017169
06:00+18ю259293 0.7 1017104
09:00+21ю23806 0.8 1017205
12:00+26ю2550100 0.0 1017957
15:00+27ююв2445100 0.0 10161261
18:00+26юз145068 0.0 1016651
21:00+20з117135 0.0 101712